SEASAT 1

Last updated on Sun Aug 09 2026 00:02:08 GMT+0000 (Coordinated Universal Time)

1 10967U 78064A 26220.59936930 -.00000020 00000+0 32857-4 0 9995 2 10967 108.0152 84.3163 0001192 292.7647 67.3373 14.46271112528471
UTC large
Height (km)
Speed (km/s)
/
Latitude / Longitude
Inclination (degrees)
Orbital Period (minutes)
Azimuth
Elevation
Range (km)
Doppler Factor

Next 0 passes for location: London (51.5072 / 0.1276)

No passes found over London.
SEASAT 1